User: anonymous   Login
Location: *
(46.1200°N, 11.2700°E)
Time: 17:11:37
(UTC+00:00)
Language:

H-2A R/B - Orbit

View from above orbital plane
View from above orbital plane
View from above satellite
View from above satellite

Ground track
Ground track

The orbit data is extracted from the following two-line orbital elements,

1 27601U 02056E   21125.92448946 -.00000017  00000-0  82927-5 0  9998
2 27601  98.1930 150.5113 0072890  37.6365  27.0907 14.31991484960846
Epoch (UTC): 05 May 2021 22:11:15
Eccentricity: 0.0072890
inclination: 98.1930°
perigee height: 733 km
apogee height: 837 km
right ascension of ascending node: 150.5113°
argument of perigee: 37.6365°
revolutions per day: 14.31991484
mean anomaly at epoch: 27.0907°
orbit number at epoch: 96084

The dashed part of the orbit path shows where the satellite is in the earth's shadow,  

DLR